[[{"header":{"parameterUnit":"m.s-1","parameterCategory":1,"la1":30.2991,"la2":30.254,"lo1":-89.0895,"lo2":-89.0444,"dy":0.0017,"dx":0.0017,"nx":28,"ny":28,"refTime":"2025-12-18T09:00:00:Z","depth":0,"parameterNumber":2,"parameterNumberName":"U-component_of_WINDS"},"data":[0,0,0,0,0,0,0,0,0,0,0,0,0,0,0,0,0,0,0,0,0,0,0,0,0,0,0,0,0,0,0,0,0,0,0,0,0,0,0,0,0,0,0,0,0,0,0,0,0,0,0,0,0,0,0,0,0,0,-1.6601,-1.6602,0,-1.6697,-1.6698,-1.6699,-1.673,-1.673,-1.6729,-1.6729,-1.6825,-1.6828,-1.6831,0,0,0,0,0,0,0,0,0,0,0,0,0,-1.6446,-1.6449,-1.6601,-1.6602,-1.6604,-1.6696,-1.6698,-1.6699,-1.673,-1.673,-1.6729,-1.6729,-1.6824,-1.6828,-1.6831,0,0,0,0,0,0,0,0,0,0,0,0,0,-1.6524,-1.645,-1.6601,-1.6631,-1.6634,-1.6696,-1.6698,-1.6699,-1.673,-1.673,-1.6729,-1.6729,-1.6823,-1.6827,-1.6832,-1.6871,0,0,-1.6845,-1.6847,0,0,0,0,0,0,0,0,-1.652,-1.653,-1.6625,-1.6629,-1.6633,-1.6701,-1.6678,-1.6757,-1.6731,-1.6694,-1.6729,-1.6728,-1.6784,-1.6792,-1.6811,-1.6875,-1.688,-1.6846,-1.6848,-1.685,-1.6851,0,0,0,0,0,0,0,-1.6514,-1.6526,-1.6639,-1.6626,-1.6631,-1.6639,-1.6649,-1.6693,-1.6741,-1.6697,-1.67,-1.671,-1.6786,-1.6807,-1.6813,-1.6881,-1.6845,-1.6849,-1.6852,-1.6854,-1.6983,-1.6984,0,0,0,0,0,0,-1.6504,-1.6521,-1.6636,-1.6642,-1.6574,-1.6642,-1.6654,-1.668,-1.6741,-1.675,-1.6711,-1.6712,-1.6799,-1.6808,-1.6817,-1.6867,-1.685,-1.6854,-1.6857,-1.6982,-1.6983,-1.6984,0,0,0,0,0,0,-1.6501,-1.6514,-1.6632,-1.6582,-1.6598,-1.6645,-1.6674,-1.6682,-1.6702,-1.6751,-1.676,-1.6723,-1.6799,-1.6811,-1.6858,-1.6871,-1.6856,-1.686,-1.6981,-1.6983,-1.6984,-1.6967,0,0,0,0,0,0,-1.6496,-1.6513,-1.6528,-1.6583,-1.6601,-1.6671,-1.6675,-1.6684,-1.671,-1.6712,-1.6765,-1.6773,-1.68,-1.6851,-1.6862,-1.6876,-1.6864,-1.698,-1.6982,-1.6983,-1.6966,-1.6967,-1.6968,0,0,0,0,0,-1.6491,-1.6519,-1.6529,-1.6542,-1.6621,-1.6672,-1.6682,-1.6712,-1.6711,-1.6727,-1.6758,-1.6771,-1.6868,-1.6855,-1.6868,-1.6884,-1.698,-1.6982,-1.6983,-1.6966,-1.6967,-1.6968,0,0,0,0,0,0,-1.6464,-1.6527,-1.6538,-1.6585,-1.6623,-1.6677,-1.6698,-1.6713,-1.6751,-1.6751,-1.6787,-1.6799,-1.6843,-1.6868,-1.6853,-1.6926,-1.6924,-1.6929,-1.6907,-1.6908,-1.6909,-1.6902,-1.6867,0,0,0,0,0,-1.6464,-1.6501,-1.6553,-1.659,-1.6608,-1.665,-1.6673,-1.6693,-1.6734,-1.675,-1.6785,-1.6823,-1.6862,-1.6887,-1.6926,-1.6971,-1.6983,-1.6988,-1.6989,-1.699,-1.6993,-1.7019,-1.7022,-1.699,-1.699,-1.699,0,0,-1.6464,-1.6503,-1.6523,-1.6586,-1.6617,-1.6654,-1.6663,-1.6701,-1.6729,-1.6755,-1.6801,-1.6829,-1.6874,-1.692,-1.6943,-1.6943,-1.7004,-1.6992,-1.6992,-1.6995,-1.7021,-1.7024,-1.7026,-1.6991,-1.6991,-1.6991,0,0,-1.6482,-1.6515,-1.6549,-1.6581,-1.6629,-1.6657,-1.6665,-1.6717,-1.6736,-1.6784,-1.6805,-1.6838,-1.6904,-1.6936,-1.6961,-1.6992,-1.7005,-1.7004,-1.7007,-1.7033,-1.7035,-1.7037,-1.7048,-1.7052,-1.7007,-1.7007,-1.7007,0,-1.6475,-1.6532,-1.6565,-1.6602,-1.6629,-1.6656,-1.6691,-1.672,-1.6778,-1.6796,-1.6796,-1.688,-1.6913,-1.6967,-1.6974,-1.6994,-1.7004,-1.6997,-1.7032,-1.7035,-1.7037,-1.7048,-1.7052,-1.7006,-1.7006,-1.7006,-1.7006,0,-1.6521,-1.656,-1.6581,-1.6637,-1.6667,-1.6703,-1.6741,-1.6767,-1.6785,-1.6813,-1.6861,-1.6901,-1.6948,-1.6963,-1.6981,-1.702,-1.7019,-1.7025,-1.7024,-1.7039,-1.705,-1.7054,-1.7005,-1.7006,-1.7006,-1.7006,0,0,-1.6524,-1.6598,-1.6606,-1.6631,-1.6687,-1.6718,-1.6755,-1.6802,-1.6823,-1.6863,-1.6895,-1.6951,-1.6958,-1.6986,-1.7008,-1.703,-1.7052,-1.7034,-1.7035,-1.7035,-1.7097,-1.7091,-1.7095,-1.7062,-1.7063,-1.7063,-1.7093,0,-1.6548,-1.6616,-1.6647,-1.6701,-1.6737,-1.6764,-1.6797,-1.6834,-1.6862,-1.6896,-1.6926,-1.6965,-1.6971,-1.6989,-1.7012,-1.7044,-1.7065,-1.7043,-1.7091,-1.7093,-1.7078,-1.7101,-1.7094,-1.712,-1.7097,-1.7098,-1.7099,0,-1.6586,-1.6626,-1.6683,-1.6735,-1.6751,-1.678,-1.6825,-1.6859,-1.6902,-1.692,-1.6952,-1.6974,-1.7014,-1.7012,-1.7068,-1.7052,-1.7074,-1.7093,-1.7095,-1.71,-1.7095,-1.7105,-1.7129,-1.7133,-1.7106,-1.7105,-1.7105,0,-1.6581,-1.6649,-1.6693,-1.6714,-1.6776,-1.6795,-1.6822,-1.6865,-1.6891,-1.6931,-1.6949,-1.6993,-1.7017,-1.7051,-1.7084,-1.7079,-1.7137,-1.7137,-1.7153,-1.7152,-1.7162,-1.7161,-1.7189,-1.7178,-1.7178,-1.7178,-1.7178,0,-1.6605,-1.6638,-1.6691,-1.6718,-1.6757,-1.6793,-1.683,-1.6859,-1.6897,-1.6929,-1.6956,-1.6986,-1.7028,-1.7063,-1.709,-1.7132,-1.7143,-1.7158,-1.7165,-1.7155,-1.7153,-1.7169,-1.7168,-1.7179,-1.7179,-1.7179,-1.7178,0,-1.6605,-1.6642,-1.6691,-1.6746,-1.676,-1.6786,-1.6833,-1.686,-1.6889,-1.693,-1.6942,-1.6987,-1.703,-1.7067,-1.7124,-1.7141,-1.7185,-1.7193,-1.717,-1.7173,-1.7186,-1.7184,-1.7225,-1.7232,-1.7217,-1.7217,-1.7217,0,-1.6617,-1.6644,-1.6702,-1.6726,-1.6752,-1.679,-1.6817,-1.6854,-1.6881,-1.6934,-1.6954,-1.6999,-1.7037,-1.7105,-1.7143,-1.7187,-1.7195,-1.7207,-1.7202,-1.7192,-1.7195,-1.7192,-1.7195,-1.7206,-1.7206,-1.7206,-1.7206,0,-1.6635,-1.6652,-1.669,-1.6735,-1.6767,-1.6804,-1.6842,-1.686,-1.6904,-1.6933,-1.6978,-1.7007,-1.7065,-1.711,-1.7158,-1.7185,-1.7203,-1.7208,-1.7214,-1.7204,-1.7189,-1.7197,-1.717,-1.7206,-1.7206,-1.7206,-1.7206,-1.7206,-1.6641,-1.6666,-1.6711,-1.6753,-1.6785,-1.682,-1.6848,-1.6881,-1.6919,-1.6969,-1.6989,-1.7034,-1.7078,-1.7144,-1.7172,-1.7208,-1.7211,-1.7219,-1.7221,-1.7223,-1.7221,-1.7184,-1.7217,-1.7217,-1.7217,-1.7218,-1.7218,0,-1.6659,-1.6689,-1.6728,-1.678,-1.6813,-1.6828,-1.687,-1.6897,-1.6936,-1.6976,-1.7013,-1.7064,-1.7108,-1.715,-1.7196,-1.7217,-1.7226,-1.7227,-1.7226,-1.7232,-1.7216,-1.7206,-1.7219,-1.7219,-1.7219,-1.7219,-1.7219,-1.7219,-1.6672,-1.6715,-1.6738,-1.6797,-1.6828,-1.6872,-1.6895,-1.6928,-1.696,-1.7016,-1.7052,-1.7079,-1.712,-1.7169,-1.721,-1.7221,-1.7237,-1.7236,-1.7249,-1.7233,-1.7233,-1.7232,-1.7223,-1.7239,-1.7239,-1.7261,-1.7261,-1.7262]},{"header":{"parameterUnit":"m.s-1","parameterCategory":1,"la1":30.2991,"la2":30.254,"lo1":-89.0895,"lo2":-89.0444,"dy":0.0017,"dx":0.0017,"nx":28,"ny":28,"refTime":"2025-12-18T09:00:00:Z","depth":0,"parameterNumber":3,"parameterNumberName":"V-component_of_WINDS"},"data":[0,0,0,0,0,0,0,0,0,0,0,0,0,0,0,0,0,0,0,0,0,0,0,0,0,0,0,0,0,0,0,0,0,0,0,0,0,0,0,0,0,0,0,0,0,0,0,0,0,0,0,0,0,0,0,0,0,0,2.323,2.3231,0,2.3266,2.3266,2.3266,2.329,2.3291,2.3291,2.3291,2.3324,2.3324,2.3325,0,0,0,0,0,0,0,0,0,0,0,0,0,2.3181,2.3181,2.323,2.3231,2.3231,2.3266,2.3266,2.3267,2.329,2.3291,2.3291,2.3291,2.3323,2.3324,2.3325,0,0,0,0,0,0,0,0,0,0,0,0,0,2.3208,2.3182,2.323,2.3247,2.3249,2.3266,2.3266,2.3267,2.329,2.3291,2.3291,2.3291,2.3323,2.3324,2.3325,2.3326,0,0,2.3328,2.3329,0,0,0,0,0,0,0,0,2.3206,2.3209,2.3244,2.3246,2.3248,2.3274,2.3261,2.3287,2.329,2.3274,2.3291,2.3291,2.3307,2.3309,2.3315,2.3328,2.3329,2.3328,2.3329,2.3329,2.333,0,0,0,0,0,0,0,2.3204,2.3208,2.3244,2.3245,2.3247,2.3252,2.3256,2.3266,2.3288,2.3276,2.3278,2.3282,2.3308,2.3314,2.3316,2.333,2.3328,2.3329,2.333,2.333,2.3347,2.3347,0,0,0,0,0,0,2.32,2.3206,2.3243,2.3245,2.3227,2.3253,2.3258,2.3265,2.3288,2.3292,2.3282,2.3283,2.3312,2.3315,2.3317,2.3321,2.3329,2.333,2.3331,2.3347,2.3347,2.3347,0,0,0,0,0,0,2.3199,2.3203,2.3242,2.3226,2.3232,2.3254,2.3262,2.3266,2.3272,2.3293,2.3297,2.3284,2.3312,2.3316,2.3324,2.3323,2.3331,2.3332,2.3347,2.3347,2.3347,2.3329,0,0,0,0,0,0,2.3197,2.3203,2.3204,2.3226,2.3232,2.3249,2.3262,2.3266,2.3274,2.3276,2.3296,2.3299,2.3313,2.3323,2.3325,2.3324,2.3333,2.3348,2.3347,2.3347,2.333,2.3328,2.3327,0,0,0,0,0,2.3195,2.3196,2.3204,2.3208,2.3234,2.3249,2.3252,2.3269,2.3274,2.3275,2.3289,2.3299,2.3322,2.3323,2.3327,2.3326,2.3348,2.3347,2.3347,2.333,2.3328,2.3327,0,0,0,0,0,0,2.3171,2.3199,2.3208,2.3216,2.323,2.3253,2.3255,2.3266,2.3277,2.3278,2.3297,2.3301,2.3308,2.3318,2.3319,2.3329,2.3336,2.3336,2.3323,2.3321,2.3319,2.3317,2.3334,0,0,0,0,0,2.3167,2.3177,2.3201,2.3205,2.3212,2.3232,2.3239,2.3251,2.3265,2.3271,2.3285,2.3298,2.3309,2.3315,2.3326,2.3331,2.3336,2.3332,2.3331,2.3329,2.3329,2.3334,2.3333,2.3345,2.3345,2.3345,0,0,2.3157,2.3174,2.3179,2.3201,2.3213,2.3223,2.3237,2.3246,2.3254,2.3272,2.3282,2.3293,2.3309,2.3316,2.332,2.3324,2.3327,2.3329,2.3327,2.3328,2.3334,2.3332,2.3331,2.3345,2.3345,2.3345,0,0,2.3146,2.3159,2.3166,2.3179,2.3198,2.3211,2.3213,2.3235,2.3243,2.3254,2.3268,2.3277,2.3294,2.3305,2.3313,2.3308,2.3318,2.3311,2.3303,2.3307,2.3306,2.3305,2.3305,2.3304,2.3311,2.3311,2.3311,0,2.3132,2.3149,2.3167,2.3177,2.3187,2.3205,2.3212,2.3223,2.3243,2.3249,2.3254,2.3278,2.3289,2.33,2.33,2.3305,2.3307,2.3309,2.3305,2.3304,2.3304,2.3303,2.3303,2.331,2.331,2.331,2.331,0,2.3131,2.3142,2.3145,2.3167,2.3177,2.3184,2.3204,2.3211,2.3222,2.3235,2.3246,2.3261,2.3276,2.3279,2.3289,2.3292,2.3294,2.3302,2.3309,2.3302,2.3301,2.3301,2.3308,2.3309,2.3309,2.3309,0,0,2.3104,2.3139,2.3139,2.3151,2.3174,2.3182,2.3191,2.3207,2.3214,2.3227,2.3236,2.3251,2.3258,2.3267,2.3278,2.3282,2.3279,2.3289,2.329,2.3288,2.3284,2.3279,2.3278,2.3285,2.3285,2.3285,2.3283,0,2.3098,2.3116,2.3134,2.3146,2.3157,2.3176,2.3184,2.3198,2.3211,2.3221,2.3234,2.3246,2.3254,2.326,2.3264,2.3278,2.3278,2.3278,2.3293,2.3293,2.3289,2.3278,2.3273,2.327,2.3283,2.3283,2.3283,0,2.3092,2.3108,2.3121,2.3145,2.3151,2.3157,2.3175,2.3184,2.3202,2.321,2.3221,2.3234,2.3244,2.325,2.3264,2.3264,2.3271,2.3278,2.3279,2.3281,2.3288,2.3281,2.3269,2.3269,2.3283,2.3283,2.3283,0,2.3073,2.3097,2.3109,2.3118,2.3145,2.315,2.3162,2.3179,2.3188,2.3203,2.3209,2.3223,2.3231,2.3242,2.3258,2.3261,2.3271,2.3278,2.3278,2.3278,2.328,2.3279,2.3269,2.3283,2.3283,2.3283,2.3283,0,2.3064,2.3072,2.3101,2.3109,2.3118,2.3138,2.3147,2.316,2.3175,2.3185,2.3201,2.3209,2.323,2.324,2.3253,2.3263,2.3266,2.3273,2.3277,2.3272,2.3272,2.3278,2.3278,2.3282,2.3282,2.3282,2.3283,0,2.3045,2.3065,2.3079,2.3105,2.3112,2.3118,2.314,2.3147,2.3161,2.3173,2.3177,2.3198,2.3212,2.3229,2.3247,2.3255,2.3264,2.3269,2.3259,2.3261,2.3261,2.3261,2.3255,2.3255,2.3267,2.3267,2.3267,0,2.3039,2.3046,2.3073,2.3082,2.3093,2.3106,2.3117,2.3137,2.3146,2.3167,2.3172,2.3187,2.3201,2.3221,2.3238,2.3252,2.3257,2.3254,2.326,2.3256,2.3259,2.3258,2.3259,2.3253,2.3253,2.3253,2.3253,0,2.3025,2.3035,2.305,2.3069,2.3081,2.3096,2.3111,2.3117,2.314,2.315,2.3165,2.3176,2.3196,2.3211,2.3227,2.3238,2.3249,2.3251,2.3252,2.3248,2.3242,2.3246,2.3257,2.3251,2.3251,2.3251,2.3251,2.3251,2.3013,2.3021,2.3042,2.3058,2.3073,2.3087,2.3096,2.3112,2.3126,2.3145,2.3155,2.317,2.3188,2.3212,2.3222,2.3233,2.3237,2.3238,2.3239,2.3239,2.3238,2.324,2.3236,2.3236,2.3236,2.3236,2.3237,0,2.3002,2.3017,2.3032,2.3054,2.3067,2.3078,2.3096,2.3106,2.3119,2.3136,2.3149,2.3167,2.3182,2.32,2.3215,2.3221,2.3227,2.3225,2.3225,2.3227,2.3233,2.3231,2.322,2.322,2.322,2.322,2.322,2.322,2.2998,2.3012,2.3025,2.3046,2.306,2.3077,2.3086,2.31,2.3113,2.3133,2.3146,2.3158,2.3175,2.3193,2.3207,2.3212,2.3217,2.3214,2.322,2.3225,2.3227,2.3228,2.3226,2.3214,2.3214,2.3213,2.3213,2.3213]}]]